Regional Weather Roundup
Issued by NWS Upton, NY

Current Version | Previous Version | Text Only | Print | Product List | Glossary On
Versions: 1 2 3 4 5 6 7 8 9 10 11 12 13 14 15 16 17 18 19 20 21 22 23 24 25 26 27
000 ASUS41 KOKX 302104 RWROKX REGIONAL WEATHER ROUNDUP NATIONAL WEATHER SERVICE NEW YORK NY 500 PM EDT MON MAY 30 2016 NOTE: "FAIR" INDICATES FEW OR NO CLOUDS BELOW 12,000 FEET WITH NO SIGNIFICANT WEATHER AND/OR OBSTRUCTIONS TO VISIBILITY. NYZ071-072-176-178-NJZ106-104-302200- NEW YORK CITY METRO AREA CITY SKY/WX TMP DP RH WIND PRES REMARKS CENTRAL PARK CLOUDY 77 67 71 S6 29.95F LAGUARDIA APRT CLOUDY 77 73 87 S9 29.92S KENNEDY INTL CLOUDY 70 68 93 S13 29.94F NEWARK/LIBERTY CLOUDY 80 67 64 S9 29.92S BRNX BOT. GARD N/A 75 68 78 SE3 29.95R TETERBORO PTSUNNY 80 66 62 S9 29.91S $$ NYZ177-179-078>081-302200- LONG ISLAND NEW YORK CITY SKY/WX TMP DP RH WIND PRES REMARKS FARMINGDALE CLOUDY 70 66 87 SW12 29.95S ISLIP FOG 67 65 93 SW12 29.95S VSB 1 SHIRLEY CLOUDY 67 65 93 S6 29.96F FOG RIVERHEAD N/A 68 66 94 CALM 29.95S WESTHAMPTON FOG 63 62 97 VRB6 29.98S VSB 1/2 EAST HAMPTON CLOUDY 64 63 98 SW9 29.97S FOG MONTAUK POINT N/A 64 64 100 SW7 29.98S $$ NYZ052-065-067-302200- HUDSON VALLEY CITY SKY/WX TMP DP RH WIND PRES REMARKS WHITE PLAINS CLOUDY 76 68 76 S6 29.93S NEWBURGH MOSUNNY 82 68 61 VRB6 29.91F MONTGOMERY CLOUDY 84 65 52 S9 29.89F POUGHKEEPSIE PTSUNNY 84 66 54 VRB7 29.88F ALBANY PTSUNNY 83 63 50 S14G20 29.85F $$ NJZ001-105-106-008-010-013-015-019>022-104-302200- NEW JERSEY CITY SKY/WX TMP DP RH WIND PRES REMARKS NEWARK/LIBERTY CLOUDY 80 67 64 S9 29.92S TETERBORO PTSUNNY 80 66 62 S9 29.91S CALDWELL PTSUNNY 81 63 54 SW7 29.92F MORRISTOWN CLOUDY 81 66 61 SW9 29.92F SOMERVILLE CLOUDY 80 69 69 S7 29.91S SUSSEX PTSUNNY 82 60 47 SW8 29.91F ANDOVER N/A 82 62 50 VRB7 29.93F TRENTON CLOUDY 78 67 68 S9 29.93F MILLVILLE CLOUDY 71 68 90 VRB3 29.98S ATLANTIC CITY LGT RAIN 71 69 93 S8 29.97S WRIGHTSTOWN CLOUDY 75 72 88 SW10 29.93S TOMS RIVER CLOUDY 73 68 83 S8 29.96S BELMAR CLOUDY 75 71 87 S8 29.96S $$ PAZ047>061-062-071-302200- EASTERN PENNSYLVANIA CITY SKY/WX TMP DP RH WIND PRES REMARKS PHILADELPHIA CLOUDY 77 67 71 S10 29.95S ALLENTOWN PTSUNNY 85 63 47 SW7 29.92F SCRANTON CLOUDY 79 61 53 N10 29.93R $$ CTZ002-004>006-009-010-012-RIZ004-006-007-MAZ004-011-015-302200- SOUTHERN NEW ENGLAND IN CT CITY SKY/WX TMP DP RH WIND PRES REMARKS BRADLEY INTL CLOUDY 80 67 64 S12 29.89F HARTFORD PTSUNNY 80 68 66 S13 29.91S DANBURY CLOUDY 78 66 66 VRB7 29.94S WTRBRY/OXFORD CLOUDY 75 66 73 S12 29.96S BRIDGEPORT CLOUDY 73 68 84 S10 29.93F MERIDEN CLOUDY 75 67 76 S12 29.93S NEW HAVEN CLOUDY 72 68 87 S7 29.93F CHESTER CLOUDY 70 70 100 S6 29.95F FOG GROTON FOG 63 63 100 S10 29.95S VSB 1/4 WILLIMANTIC CLOUDY 76 68 76 S12 29.93S IN RI CITY SKY/WX TMP DP RH WIND PRES REMARKS PROVIDENCE CLOUDY 73 67 81 SW8 29.94S BLOCK ISLAND LGT RAIN 61 61 100 SW13 29.97F VSB 1/2 WESTERLY CLOUDY 66 62 87 SW5 29.96F FOG IN MA CITY SKY/WX TMP DP RH WIND PRES REMARKS BOSTON PTSUNNY 73 67 81 S12G21 29.90F WORCESTER PTSUNNY 75 63 66 SW8 29.93F WESTFIELD CLOUDY 79 67 66 S10 29.89F PROVINCETOWN CLOUDY 64 63 96 SW12 29.94S NANTUCKET LGT RAIN 63 62 97 SW14 29.98R VSB 1/2 $$ ANZ330-335-338-340-345-350-353-355-302200- COASTAL MARINE OBSERVATIONS STATION/POSITION TIME SKY/WX TEMP WIND PRES VSBY WAVE AIR SEA DIR/SP/G HT/PER (UTC) (F) (DEG/KT/KT) (MB) (MI) (FT/S) NY HARB ENTRANCE 1950 61 58 190/ 14/ 14 1013.7 3/ 7 20S FIRE ISLAND 1950 63 61 200/ 10/ 12 1014.5 3/ 7 GREAT SOUTH BAY 2000 65 71 230/ 10/ 14 N/A 23 SSW MONTAUK P 2050 62 59 230/ 14/ 14 1014.2 3/ 6 15 E BARNEGAT LI 2022 61 N/A 4/ 6 HUDSON CANYON 1950 62 59 1016.0 3/ 7 KINGS POINT 2000 69 62 1013.3 EXECUTION ROCKS NOT AVBL CENTRAL LI SOUND NOT AVBL EASTERN LI SOUND 2000 61 57 220/ 8/ 10 N/A ROBBINS REEF 2006 72 180/ 11/ 12 1012.8 $$ >>>>>>>>>>>>>>>>>>>>>>>>>>>> KEY <<<<<<<<<<<<<<<<<<<<<<<<<<< > < > SKY/WX - SKY CONDITION/PRESENT WEATHER < > TMP - TEMPERATURE IN FAHRENHEIT < > DP - DEWPOINT IN FAHRENHEIT < > RH - RELATIVE HUMIDITY IN PERCENT < > WIND - DIRECTION AND SPEED IN MPH < > PRES - MEAN SEA LEVEL PRESSURE IN INCHES OF HG < > WCI - WIND CHILL INDEX < > VSB - VISIBILITY IN MILES < > HX - HEAT INDEX < > TC - TEMPERATURE IN CELSIUS < > VRB - VARIABLE WIND DIRECTION < > < >>>>>>>>>>>>>>>>>>>>>>>>>>>> KEY <<<<<<<<<<<<<<<<<<<<<<<<<<<

USA.gov is the U.S. government's official web portal to all federal, state and local government web resources and services.